Change the Weather History Date:

Sunday, September 1, 2013

  Actual Average Record
Temperature  
Mean Temperature 76 °F -  
Max Temperature 86 °F 86 °F 104 °F (1984)
Min Temperature 63 °F 61 °F 42 °F (1956)
Cooling Degree Days 10    
Growing Degree Days 26 (Base 50)    
Moisture  
Dew Point 61 °F    
Average Humidity 60    
Maximum Humidity 82    
Minimum Humidity 28    
Precipitation  
Precipitation 0.12 in - - ()
Sea Level Pressure  
Sea Level Pressure 29.95 in    
Wind  
Wind Speed 7 mph (North)    
Max Wind Speed 20 mph    
Max Gust Speed 34 mph    
Visibility 10 miles    
Events Rain , Thunderstorm    
Averages and records for this station are not official NWS values.
T = Trace of Precipitation, MM = Missing Value Source: NWS Daily Summary

Daily Weather History Graph

Daily Weather History Graph

Search for Another Location

Airport or City:

Trip Planner

Search our weather history database for the weather conditions in past years. The results will help you decide how hot, cold, wet, or windy it might be!

Date:

Astronomy

Sep. 01, 2013 Rise Set
Actual Time 6:58 AM CDT 8:01 PM CDT
Civil Twilight 6:30 AM CDT 8:29 PM CDT
Nautical Twilight 5:57 AM CDT 9:02 PM CDT
Astronomical Twilight 5:22 AM CDT 9:36 PM CDT
Moon 3:21 AM CDT (9/1) 5:39 PM CDT (9/1)
Length of Visible Light 13h 58m
Length of Day
13h 03m
Waning Crescent, 13% of the Moon is Illuminated
Sep 1
Waning Crescent
Sep 5
New
Sep 12
First Quarter
Sep 19
Full
Sep 26
Last Quarter

Hourly Weather History & Observations

Time (CDT) Temp. Heat Index Dew Point Humidity Pressure Visibility Wind Dir Wind Speed Gust Speed Precip Events Conditions
12:15 AM 75.7 °F - 68.9 °F 79% 29.81 in 10.0 mi Calm Calm - N/A   Clear
12:35 AM 76.3 °F - 68.9 °F 78% 29.81 in 10.0 mi Calm Calm - N/A   Clear
12:55 AM 75.6 °F - 68.5 °F 79% 29.82 in 10.0 mi NE 3.5 mph - N/A   Clear
1:15 AM 77.0 °F - 68.4 °F 75% 29.83 in 10.0 mi Calm Calm - N/A   Clear
1:35 AM 76.1 °F - 68.9 °F 78% 29.83 in 10.0 mi Calm Calm - N/A   Clear
1:55 AM 76.6 °F - 69.3 °F 78% 29.82 in 10.0 mi Calm Calm - N/A   Clear
2:15 AM 77.0 °F - 69.4 °F 77% 29.80 in 10.0 mi Calm Calm - N/A Thunderstorm Thunderstorm
2:35 AM 77.0 °F - 69.6 °F 78% 29.79 in 10.0 mi Calm Calm - N/A Thunderstorm Thunderstorm
2:55 AM 77.4 °F - 69.3 °F 76% 29.84 in 10.0 mi West 12.7 mph 23.0 mph N/A Thunderstorm Thunderstorm
3:15 AM 77.2 °F - 66.2 °F 69% 29.86 in 10.0 mi West 19.6 mph 34.5 mph N/A Rain , Thunderstorm Thunderstorms and Rain
3:35 AM 74.8 °F - 65.1 °F 72% 29.86 in 10.0 mi NW 8.1 mph 20.7 mph N/A Rain , Thunderstorm Light Thunderstorms and Rain
3:55 AM 73.6 °F - 67.1 °F 80% 29.82 in 7.0 mi Calm Calm - 0.12 in Rain , Thunderstorm Thunderstorms and Rain
4:15 AM 74.3 °F - 68.0 °F 81% 29.85 in 10.0 mi South 5.8 mph - N/A Thunderstorm Mostly Cloudy
4:35 AM 75.2 °F - 68.9 °F 81% 29.87 in 10.0 mi WNW 11.5 mph - N/A   Scattered Clouds
4:55 AM 75.0 °F - 69.1 °F 82% 29.88 in 10.0 mi NW 8.1 mph - N/A   Clear
5:15 AM 74.7 °F - 68.4 °F 81% 29.89 in 10.0 mi North 10.4 mph 17.3 mph N/A   Clear
5:35 AM 74.3 °F - 68.0 °F 81% 29.89 in 10.0 mi North 9.2 mph - N/A   Clear
5:55 AM 73.8 °F - 66.2 °F 77% 29.90 in 10.0 mi North 8.1 mph 17.3 mph N/A   Clear
6:15 AM 72.7 °F - 66.0 °F 80% 29.92 in 10.0 mi North 8.1 mph - N/A   Clear
6:35 AM 71.6 °F - 65.5 °F 81% 29.92 in 10.0 mi North 9.2 mph - N/A   Clear
6:55 AM 71.1 °F - 65.3 °F 82% 29.93 in 10.0 mi North 11.5 mph - N/A   Clear
7:15 AM 71.1 °F - 64.9 °F 81% 29.93 in 10.0 mi North 13.8 mph 20.7 mph N/A   Clear
7:35 AM 71.2 °F - 64.8 °F 80% 29.93 in 10.0 mi North 11.5 mph 19.6 mph N/A   Clear
7:55 AM 71.6 °F - 64.9 °F 79% 29.94 in 10.0 mi North 10.4 mph 17.3 mph N/A   Clear
8:15 AM 72.3 °F - 65.3 °F 78% 29.95 in 10.0 mi North 11.5 mph 18.4 mph N/A   Clear
8:35 AM 72.7 °F - 65.5 °F 78% 29.96 in 10.0 mi North 11.5 mph 16.1 mph N/A   Clear
8:55 AM 73.6 °F - 65.8 °F 77% 29.97 in 10.0 mi North 10.4 mph 17.3 mph N/A   Clear
9:15 AM 74.5 °F - 65.7 °F 74% 29.99 in 10.0 mi North 10.4 mph 17.3 mph N/A   Clear
9:35 AM 75.2 °F - 65.7 °F 72% 29.99 in 10.0 mi NNE 11.5 mph 19.6 mph N/A   Clear
9:55 AM 76.3 °F - 65.7 °F 70% 30.00 in 10.0 mi NNE 13.8 mph 20.7 mph N/A   Clear
10:15 AM 76.6 °F - 66.2 °F 70% 30.00 in 10.0 mi NNE 13.8 mph 18.4 mph N/A   Mostly Cloudy
10:35 AM 78.6 °F - 66.7 °F 67% 30.00 in 10.0 mi North 13.8 mph - N/A   Mostly Cloudy
10:55 AM 78.8 °F - 66.2 °F 65% 30.00 in 10.0 mi NNE 13.8 mph 19.6 mph N/A   Scattered Clouds
11:15 AM 80.4 °F 82.4 °F 65.7 °F 61% 29.99 in 10.0 mi NNE 11.5 mph 18.4 mph N/A   Scattered Clouds
11:35 AM 81.1 °F 81.8 °F 60.1 °F 49% 30.00 in 10.0 mi NNE 15.0 mph 19.6 mph N/A   Clear
11:55 AM 82.0 °F 81.2 °F 53.2 °F 37% 29.99 in 10.0 mi NNE 18.4 mph 26.5 mph N/A   Clear
12:15 PM 82.6 °F 82.1 °F 56.7 °F 41% 29.99 in 10.0 mi North 13.8 mph 21.9 mph N/A   Clear
12:35 PM 82.4 °F 81.6 °F 54.5 °F 38% 29.99 in 10.0 mi NNE 15.0 mph 23.0 mph N/A   Clear
12:55 PM 83.3 °F 82.5 °F 55.9 °F 39% 29.99 in 10.0 mi North 19.6 mph 24.2 mph N/A   Clear
1:15 PM 83.3 °F 82.1 °F 54.0 °F 36% 29.99 in 10.0 mi North 13.8 mph 18.4 mph N/A   Clear
1:35 PM 84.0 °F - 51.8 °F 33% 29.99 in 10.0 mi North 12.7 mph 19.6 mph N/A   Clear
1:55 PM 84.9 °F - 52.7 °F 33% 29.99 in 10.0 mi North 12.7 mph 21.9 mph N/A   Clear
2:15 PM 84.7 °F - 51.6 °F 32% 29.99 in 10.0 mi NNE 12.7 mph - N/A   Clear
2:35 PM 85.1 °F - 51.1 °F 31% 29.99 in 10.0 mi North 11.5 mph 18.4 mph N/A   Clear
2:55 PM 85.1 °F - 52.0 °F 32% 29.99 in 10.0 mi NNE 15.0 mph 19.6 mph N/A   Clear
3:15 PM 85.5 °F - 49.3 °F 28% 29.99 in 10.0 mi NNE 11.5 mph 17.3 mph N/A   Clear
3:35 PM 85.6 °F - 51.3 °F 30% 29.99 in 10.0 mi North 8.1 mph - N/A   Clear
3:55 PM 86.2 °F - 50.9 °F 30% 29.99 in 10.0 mi NNW 9.2 mph 16.1 mph N/A   Clear
4:15 PM 86.0 °F - 51.1 °F 30% 29.98 in 10.0 mi North 9.2 mph - N/A   Clear
4:35 PM 86.0 °F - 50.4 °F 29% 29.99 in 10.0 mi North 8.1 mph 17.3 mph N/A   Clear
4:55 PM 85.5 °F - 50.7 °F 30% 29.99 in 10.0 mi NNW 11.5 mph - N/A   Clear
5:15 PM 85.3 °F - 52.7 °F 33% 29.98 in 10.0 mi North 10.4 mph 16.1 mph N/A   Clear
5:35 PM 85.1 °F - 52.5 °F 32% 29.98 in 10.0 mi North 11.5 mph - N/A   Clear
5:55 PM 84.6 °F - 52.2 °F 33% 29.98 in 10.0 mi North 10.4 mph - N/A   Clear
6:15 PM 84.2 °F - 51.6 °F 32% 29.98 in 10.0 mi NNW 9.2 mph - N/A   Clear
6:35 PM 83.5 °F - 51.4 °F 33% 29.98 in 10.0 mi North 6.9 mph - N/A   Clear
6:55 PM 82.9 °F 81.8 °F 53.1 °F 36% 29.98 in 10.0 mi North 6.9 mph - N/A   Clear
7:15 PM 82.0 °F 81.3 °F 54.3 °F 38% 29.98 in 10.0 mi North 4.6 mph - N/A   Clear
7:35 PM 80.4 °F 80.3 °F 54.9 °F 41% 29.98 in 10.0 mi North 4.6 mph - N/A   Clear
7:55 PM 76.8 °F - 58.5 °F 53% 29.98 in 10.0 mi Calm Calm - N/A   Clear
8:15 PM 74.1 °F - 59.4 °F 60% 29.98 in 10.0 mi Calm Calm - N/A   Clear
8:35 PM 71.8 °F - 60.6 °F 68% 30.00 in 10.0 mi Calm Calm - N/A   Clear
8:55 PM 70.2 °F - 60.4 °F 71% 30.00 in 10.0 mi NNE 4.6 mph - N/A   Clear
9:15 PM 73.4 °F - 58.3 °F 59% 30.01 in 10.0 mi NNE 4.6 mph - N/A   Clear
9:35 PM 72.5 °F - 58.1 °F 60% 30.03 in 10.0 mi NNE 3.5 mph - N/A   Clear
9:55 PM 71.4 °F - 58.1 °F 63% 30.03 in 10.0 mi Calm Calm - N/A   Clear
10:15 PM 69.4 °F - 58.8 °F 69% 30.04 in 10.0 mi Calm Calm - N/A   Clear
10:35 PM 67.1 °F - 58.5 °F 74% 30.04 in 10.0 mi Calm Calm - N/A   Clear
10:55 PM 65.3 °F - 59.0 °F 80% 30.05 in 10.0 mi Calm Calm - N/A   Clear
11:15 PM 66.0 °F - 58.5 °F 77% 30.05 in 10.0 mi Calm Calm - N/A   Clear
11:35 PM 66.6 °F - 58.1 °F 74% 30.05 in 10.0 mi Calm Calm - N/A   Clear
11:55 PM 63.9 °F - 57.9 °F 81% 30.05 in 10.0 mi Calm Calm - N/A   Clear